Location: Broekland
(52.3610°N, 6.2005°E)
Time: 00:47:10
(UTC+00:00)

Cosmos 2150 Rocket - Pass Details

Date: 19 May 2025
Orbit: 745 x 804 km, 74.0° (Epoch: 23 June)

Event Time Altitude Azimuth Distance (km) Brightness Sun altitude
Rises 21:32:30 0° 332° (NNW) 3,292 9.4 -13.2°
Reaches altitude 10° 21:34:54 10° 329° (NNW) 2,367 8.0 -13.3°
Maximum altitude 21:40:13 61° 251° (WSW) 907 4.4 -13.7°
Enters shadow 21:44:08 18° 175° (S) 1,859 5.4 -14.0°
